This demonstration page uses our WeatherBlox Daily Observations layout. Learn more.

Left ArrowRight Arrow

38.20091, -84.87328

Hourly Observations for April 23, 2020

Temp ( °F °C ) Dew Point ( °F °C ) Humidity (%) Winds ( mph kmh ) Pressure ( in mb ) Visibility ( mi km ) Precip ( " mm )
12:53 am 00:53 Clear 56 13.3 42 5.6 60 60 Calm 29.90 1012 10 16 0.00 0.00
1:53 am 01:53 Mostly Cloudy 54 12.2 43 6.1 67 67 SSW 3 6 29.89 1012 8 13 0.00 0.00
2:53 am 02:53 Mostly Cloudy 59 15 42 5.6 54 54 SW 10 17 29.85 1011 10 16 0.00 0.00
3:53 am 03:53 Mostly Cloudy 58 14.4 43 6.1 58 58 SSW 9 15 29.84 1010 10 16 0.00 0.00
4:53 am 04:53 Cloudy 56 13.3 46 7.8 70 70 SSW 6 9 29.83 1010 10 16 0.00 0.00
5:53 am 05:53 Cloudy 55 12.8 47 8.3 74 74 S 6 9 29.82 1010 10 16 0.00 0.00
6:53 am 06:53 Cloudy with Light Rain 53 11.7 48 8.9 83 83 ESE 6 9 29.81 1010 10 16 0.01 0.25
7:53 am 07:53 Cloudy with Light Rain 53 11.7 49 9.4 86 86 ESE 7 11 29.78 1008 10 16 0.02 0.51
8:33 am 08:33 Cloudy with Rain 53 11.7 50 10 89 89 SE 8 13 29.79 1009 4 6 0.04 1.02
8:53 am 08:53 Cloudy with Light Rain 53 11.7 50 10 89 89 ESE 6 9 29.78 1008 5 8 0.06 1.52
8:59 am 08:59 Cloudy with Light Rain 53 11.7 50 10 89 89 SE 6 9 29.78 1009 4 6 0.01 0.25
9:07 am 09:07 Cloudy with Rain 53 11.7 50 10 89 89 ESE 6 9 29.78 1009 3 5 0.03 0.76
9:15 am 09:15 Cloudy with Light Rain 53 11.7 50 10 89 89 ESE 7 11 29.78 1009 3 5 0.04 1.02
9:25 am 09:25 Cloudy with Rain 53 11.7 51 10.6 93 93 SE 6 9 29.78 1009 2 3 0.06 1.52
9:53 am 09:53 Cloudy with Rain 53 11.7 51 10.6 93 93 ESE 8 13 29.75 1008 3 5 0.16 4.06
10:53 am 10:53 Cloudy with Mist and Fog 54 12.2 51 10.6 90 90 E 6 9 29.73 1007 5 8 0.02 0.51
11:53 am 11:53 Cloudy with Light Rain 55 12.8 52 11.1 90 90 E 5 7 29.72 1007 10 16 0.02 0.51
12:09 pm 12:09 Cloudy with Rain 55 12.8 52 11.1 90 90 E 7 11 29.73 1007 6 10 0.01 0.25
12:28 pm 12:28 Cloudy with Light Rain 55 12.8 52 11.1 90 90 E 8 13 29.72 1006 4 6 0.03 0.76
12:32 pm 12:32 Cloudy with Light Rain 55 12.8 52 11.1 90 90 E 6 9 29.72 1006 4 6 0.03 0.76
12:53 pm 12:53 Cloudy with Light Rain 55 12.8 52 11.1 90 90 ESE 6 9 29.69 1006 4 6 0.05 1.27
1:09 pm 13:09 Cloudy with Light Rain 55 12.8 52 11.1 90 90 E 7 11 29.69 1005 3 5 0.03 0.76
1:20 pm 13:20 Cloudy with Light Rain 56 13.3 53 11.7 90 90 ESE 7 11 29.68 1005 6 10 0.04 1.02
1:40 pm 13:40 Cloudy with Nearby Thunderstorms 55 12.8 53 11.7 93 93 SE 7 11 29.68 1005 3 4 0.09 2.29
1:49 pm 13:49 Cloudy with Nearby Thunderstorms 55 13 54 12 94 94 SE 8 13 29.67 1005 3 5 0.10 2.54
1:53 pm 13:53 Cloudy with Nearby Thunderstorms 55 12.8 53 11.7 93 93 SE 7 11 29.66 1005 3 5 0.11 2.79
1:57 pm 13:57 Cloudy with Nearby Thunderstorms 55 12.8 53 11.7 93 93 SE 8 13 29.67 1005 3 4 0.04 1.02
2:01 pm 14:01 Cloudy with Heavy Rain 56 13.3 53 11.7 90 90 SE 8 13 29.66 1004 2 3 0.08 2.03
2:15 pm 14:15 Cloudy with Light Rain 56 13.3 54 12.2 93 93 SSE 7 11 29.66 1004 3 4 0.09 2.29
2:17 pm 14:17 Cloudy with Light Rain 56 13.3 54 12.2 93 93 SSE 8 13 29.66 1004 3 5 0.09 2.29
2:28 pm 14:28 Cloudy with Light Rain 56 13.3 53 11.7 90 90 SE 8 13 29.66 1004 3 4 0.11 2.79
2:33 pm 14:33 Cloudy with Rain 56 13.3 53 11.7 90 90 SE 8 13 29.65 1004 2 3 0.14 3.56
2:53 pm 14:53 Cloudy with Heavy Rain 56 13.3 54 12.2 93 93 E 6 9 29.64 1004 2 2 0.29 7.37
2:58 pm 14:58 Cloudy with Rain 56 13.3 53 11.7 90 90 E 6 9 29.64 1004 2 3 0.01 0.25
3:04 pm 15:04 Cloudy with Light Rain 56 13.3 54 12.2 93 93 ENE 6 9 29.64 1004 6 10 0.02 0.51
3:13 pm 15:13 Cloudy with Light Rain 56 13.3 54 12.2 93 93 E 7 11 29.63 1003 3 4 0.02 0.51
3:37 pm 15:37 Cloudy with Mist and Fog 56 13.3 54 12.2 93 93 E 8 13 29.62 1003 3 4 0.02 0.51
3:44 pm 15:44 Cloudy with Mist and Fog 56 13.3 54 12.2 93 93 E 8 13 29.62 1003 2 3 0.02 0.51
3:53 pm 15:53 Cloudy with Mist and Fog 56 13.3 54 12.2 93 93 E 6 9 29.61 1003 3 4 0.02 0.51
4:40 pm 16:40 Cloudy with Rain 57 13.9 54 12.2 90 90 SSE 6 9 29.60 1002 3 4 0.02 0.51
5:02 pm 17:02 Cloudy with Rain 57 13.9 54 12.2 90 90 E 6 9 29.59 1002 2 3 0.04 1.02
5:24 pm 17:24 Cloudy with Light Rain 57 13.9 54 12.2 90 90 E 7 11 29.59 1002 5 8 0.08 2.03
5:36 pm 17:36 Cloudy with Light Rain 57 13.9 54 12.2 90 90 E 7 11 29.59 1002 2 3 0.09 2.29
5:53 pm 17:53 Cloudy with Light Rain 57 13.9 54 12.2 90 90 E 6 9 29.57 1001 2 2 0.10 2.54
6:18 pm 18:18 Cloudy with Light Rain 57 13.9 54 12.2 90 90 E 8 13 29.58 1002 1 2 0.01 0.25
6:21 pm 18:21 Cloudy with Light Rain 57 13.9 54 12.2 90 90 E 7 11 29.58 1002 1 2 0.01 0.25
6:38 pm 18:38 Cloudy with Mist and Fog 57 13.9 54 12.2 90 90 ENE 8 13 29.57 1001 3 5 0.01 0.25
6:53 pm 18:53 Cloudy with Mist and Fog 57 13.9 55 12.8 93 93 E 5 7 29.57 1001 6 10 0.01 0.25
7:29 pm 19:29 Cloudy with Mist and Fog 57 13.9 54 12.2 90 90 E 8 13 29.57 1001 5 8 0.00 0.00
7:53 pm 19:53 Cloudy with Rain 57 13.9 54 12.2 90 90 NE 5 7 29.56 1001 3 4 0.06 1.52
8:03 pm 20:03 Cloudy with Heavy Rain 56 13.3 54 12.2 93 93 N 3 6 29.57 1001 1 2 0.10 2.54
8:29 pm 20:29 Cloudy with Heavy Rain 56 13.3 54 12.2 93 93 ENE 6 9 29.57 1001 3 4 0.32 8.13
8:37 pm 20:37 Cloudy with Rain 56 13.3 54 12.2 93 93 E 6 9 29.57 1001 3 5 0.35 8.89
8:53 pm 20:53 Cloudy with Light Rain 56 13.3 54 12.2 93 93 ENE 6 9 29.56 1001 4 6 0.39 9.91
9:22 pm 21:22 Cloudy with Rain 56 13.3 54 12.2 93 93 ENE 5 7 29.57 1001 5 8 0.08 2.03
9:40 pm 21:40 Cloudy with Rain 56 13.3 54 12.2 93 93 NE 5 7 29.57 1001 4 6 0.13 3.30
9:53 pm 21:53 Cloudy with Rain 56 13.3 54 12.2 93 93 NE 6 9 29.57 1001 3 5 0.17 4.32
10:04 pm 22:04 Cloudy with Light Rain 56 13.3 54 12.2 93 93 NNE 3 6 29.58 1002 9 14 0.00 0.00
10:30 pm 22:30 Cloudy with Light Rain 56 13.3 54 12.2 93 93 NE 3 6 29.58 1002 5 8 0.01 0.25
10:53 pm 22:53 Cloudy 56 13.3 54 12.2 93 93 NE 3 6 29.58 1002 10 16 0.01 0.25
11:06 pm 23:06 Cloudy 56 13.3 54 12.2 93 93 Calm 29.59 1002 10 16 0.00 0.00
11:15 pm 23:15 Cloudy 56 13.3 54 12.2 93 93 Calm 29.59 1002 10 16 0.00 0.00
11:35 pm 23:35 Cloudy 56 13.3 54 12.2 93 93 Calm 29.59 1002 10 16 0.00 0.00
11:53 pm 23:53 Cloudy 56 13.3 54 12.2 93 93 N 3 6 29.58 1002 10 16 0.00 0.00

Powered by AerisWeather